JQ1YUX-13 Tokyo Ota-ku JP current weather conditions

sailwx.info

Wind from 277

Air temperature 8.9° C
Dewpoint 8.1° C

Last reported at 2014-Nov-21 19:44 UTC.
Time now 2014-Nov-21 20:39 UTC

Location: N 35°35' E 139°40'.
View on Google Maps.

See reports from other nearby stations

  
Tides and Currents Weather Stations Pressure Air Temp Water Temp Dewpoint Dewpoint Depression Visibility Wind Speed Wind Dir Waves Ship Positions
date/time (UTC)wind fromknots sea level pressurealtimeterstation pressurevisibilityair tempwater tempwave heightnotes
2014-Nov-21 19:44 277 8.9
2014-Nov-21 19:21 277 9.4
2014-Nov-21 19:14 278 9.4
2014-Nov-21 18:51 277 9.4
2014-Nov-21 18:44 278 9.4
2014-Nov-21 18:21 277 9.4
2014-Nov-21 18:14 277 9.4
2014-Nov-21 17:51 278 9.4
2014-Nov-21 17:44 278 9.4
2014-Nov-21 17:21 279 9.4
2014-Nov-21 17:14 278 10.0
2014-Nov-21 16:51 278 10.0
2014-Nov-21 16:44 278 10.0
2014-Nov-21 16:21 278 10.0
2014-Nov-21 16:14 278 10.0
2014-Nov-21 15:51 277 10.0
2014-Nov-21 15:44 277 10.0
2014-Nov-21 15:21 277 10.6
2014-Nov-21 15:14 277 10.6
2014-Nov-21 14:51 277 10.6
2014-Nov-21 14:44 278 10.6
2014-Nov-21 14:21 277 10.6
2014-Nov-21 14:14 277 10.6
2014-Nov-21 13:51 279 11.1
2014-Nov-21 13:44 278 11.1
2014-Nov-21 13:21 281 11.1
2014-Nov-21 13:14 280 0 gusting 3 11.1
2014-Nov-21 12:51 281 11.7
2014-Nov-21 12:44 278 0 gusting 1 11.7
2014-Nov-21 12:21 278 0 gusting 1 11.7
2014-Nov-21 12:14 218 11.7
2014-Nov-21 11:51 218 11.7
2014-Nov-21 11:44 218 11.7
2014-Nov-21 11:21 218 12.2
2014-Nov-21 11:14 219 12.8
2014-Nov-21 10:51 218 13.3
2014-Nov-21 10:44 218 13.3
2014-Nov-21 10:21 218 13.3
2014-Nov-21 10:14 218 13.3
2014-Nov-21 09:51 218 13.9
2014-Nov-21 09:44 218 13.9
2014-Nov-21 09:21 218 13.9
2014-Nov-21 09:14 218 13.9
2014-Nov-21 08:51 218 14.4
2014-Nov-21 08:44 218 14.4
2014-Nov-21 08:21 218 15.0
2014-Nov-21 08:14 218 15.6
2014-Nov-21 07:51 218 15.6
2014-Nov-21 07:44 219 16.1
2014-Nov-21 07:21 218 16.7
2014-Nov-21 07:14 218 17.2
2014-Nov-21 06:51 218 17.2
2014-Nov-21 06:44 218 17.2
2014-Nov-21 06:21 051 17.2
2014-Nov-21 06:14 051 16.7
2014-Nov-21 05:51 043 17.2
2014-Nov-21 05:44 032 17.8
2014-Nov-21 05:21 012 17.2
2014-Nov-21 05:14 022 17.2
2014-Nov-21 04:51 034 18.3
2014-Nov-21 04:44 034 18.3
2014-Nov-21 04:21 171 17.8
2014-Nov-21 04:14 288 17.2
2014-Nov-21 03:51 272 0 gusting 3 16.7
2014-Nov-21 03:44 030 16.7
2014-Nov-21 03:21 045 15.6
2014-Nov-21 03:14 033 0 gusting 2 15.6
2014-Nov-21 02:51 056 15.0
2014-Nov-21 02:44 028 2 gusting 4 15.0
2014-Nov-21 02:21 341 0 gusting 5 15.0
2014-Nov-21 02:14 328 1 gusting 4 14.4
2014-Nov-21 01:51 032 1 gusting 6 13.9
2014-Nov-21 01:44 015 0 gusting 4 13.9
2014-Nov-21 01:21 005 0 gusting 4 13.3
2014-Nov-21 01:14 342 0 gusting 2 12.8
2014-Nov-21 00:51 355 2 gusting 4 12.2
2014-Nov-21 00:44 351 0 gusting 3 12.2
2014-Nov-21 00:21 318 11.1
2014-Nov-21 00:14 355 10.6
2014-Nov-20 23:51 015 9.4
2014-Nov-20 23:44 332 9.4
2014-Nov-20 23:21 018 8.3
2014-Nov-20 23:14 8.3
2014-Nov-20 22:51 355 7.8
2014-Nov-20 22:44 355 7.2
2014-Nov-20 22:21 337 7.2
2014-Nov-20 22:14 355 6.7
2014-Nov-20 21:51 355 6.7
2014-Nov-20 21:44 309 6.7
2014-Nov-20 21:21 328 0 gusting 3 7.2
2014-Nov-20 21:14 318 7.2
2014-Nov-20 20:51 7.2
2014-Nov-20 20:44 7.2
2014-Nov-20 20:21 005 7.2
2014-Nov-20 20:14 005 7.2
2014-Nov-20 19:51 323 7.2
2014-Nov-20 19:44 322 7.2
2014-Nov-20 19:21 322 7.2
2014-Nov-20 19:14 322 7.2
2014-Nov-20 18:51 323 7.2
2014-Nov-20 18:44 323 7.2
2014-Nov-20 18:21 040 7.2
2014-Nov-20 18:14 041 7.2
2014-Nov-20 17:51 041 7.8
2014-Nov-20 17:44 040 7.8
2014-Nov-20 17:21 040 7.8
2014-Nov-20 17:14 041 7.8
2014-Nov-20 16:51 040 8.3
2014-Nov-20 16:44 040 7.8
2014-Nov-20 16:21 040 8.3
2014-Nov-20 16:14 040 8.3
2014-Nov-20 15:51 040 8.3
2014-Nov-20 15:44 040 8.3
2014-Nov-20 15:21 040 8.3
2014-Nov-20 15:14 040 8.9
2014-Nov-20 14:51 040 8.9
2014-Nov-20 14:44 041 8.9
2014-Nov-20 14:21 040 8.9
2014-Nov-20 14:14 040 8.9
2014-Nov-20 13:51 041 8.9
2014-Nov-20 13:44 041 8.9
2014-Nov-20 13:21 041 8.9
2014-Nov-20 13:14 041 8.9
2014-Nov-20 12:51 040 8.9
2014-Nov-20 12:44 040 8.9
2014-Nov-20 12:21 040 8.9
2014-Nov-20 12:14 050 0 gusting 1 8.9
2014-Nov-20 11:51 307 0 gusting 0 8.9
2014-Nov-20 11:44 033 8.9
2014-Nov-20 11:21 287 0 8.9
2014-Nov-20 11:14 296 8.9
2014-Nov-20 10:51 332 0 gusting 1 8.9
2014-Nov-20 10:44 349 0 gusting 4 8.9
2014-Nov-20 10:21 036 8.3
2014-Nov-20 10:14 034 3 gusting 5 8.3
2014-Nov-20 09:51 327 8.3
2014-Nov-20 09:44 328 8.3
2014-Nov-20 09:21 299 8.3
2014-Nov-20 09:14 318 8.3
2014-Nov-20 08:51 303 7.8
2014-Nov-20 08:44 303 7.8
2014-Nov-20 08:21 307 7.8
2014-Nov-20 08:14 279 7.8
2014-Nov-20 07:51 327 7.8
2014-Nov-20 07:44 284 7.8
2014-Nov-20 07:21 328 7.8
2014-Nov-20 07:14 313 7.8
2014-Nov-20 06:51 330 8.3
2014-Nov-20 06:44 342 8.3
2014-Nov-20 06:21 331 8.3
2014-Nov-20 06:14 309 8.3
2014-Nov-20 05:51 340 8.9
2014-Nov-20 05:44 340 8.9
2014-Nov-20 05:21 340 9.4
2014-Nov-20 05:14 335 9.4
2014-Nov-20 04:51 340 10.0
2014-Nov-20 04:44 355 10.0
2014-Nov-20 04:21 280 1 gusting 6 10.6
2014-Nov-20 04:14 331 10.6
2014-Nov-20 03:51 044 10.6
2014-Nov-20 03:44 329 10.6
2014-Nov-20 03:21 342 1 gusting 6 10.6
2014-Nov-20 03:14 355 2 gusting 5 10.6
2014-Nov-20 02:51 005 2 gusting 7 10.6
2014-Nov-20 02:44 344 2 gusting 5 10.6
2014-Nov-20 02:21 329 10.6
2014-Nov-20 02:14 335 1 gusting 5 10.6
2014-Nov-20 01:51 295 10.6
2014-Nov-20 01:44 281 10.0
2014-Nov-20 01:21 238 10.0
2014-Nov-20 01:14 329 9.4
2014-Nov-20 00:51 041 0 gusting 3 9.4
2014-Nov-20 00:44 009 9.4
2014-Nov-20 00:21 344 8.9
2014-Nov-20 00:14 346 8.3
2014-Nov-19 23:51 009 1 gusting 6 7.8
2014-Nov-19 23:44 345 5 gusting 7 7.8
2014-Nov-19 23:21 314 7.8
2014-Nov-19 23:14 321 7.2
2014-Nov-19 22:51 348 0 gusting 5 7.2
2014-Nov-19 22:44 335 7.2
2014-Nov-19 22:21 309 6.7
2014-Nov-19 22:14 292 6.7
2014-Nov-19 21:51 295 6.1
2014-Nov-19 21:44 330 6.1
2014-Nov-19 21:21 333 6.1
2014-Nov-19 21:14 6.1
2014-Nov-19 20:51 331 6.1
2014-Nov-19 20:44 331 6.1
2014-Nov-19 20:21 6.1
2014-Nov-19 20:14 327 6.1